FENGYUN 1C DEB

Satellite information

Favourite Embed

Satellite Type and Status

DEBRISIN ORBIT

Key statistics

Satellite FENGYUN 1C DEB at a glance.

Uptime

9555

Days in orbit

Revolutions

≈ 13.7

Per day

Orbit

SSO

Sun Synchronous Orbit

Inclination

99.4

Latest

Satellite identification and parameters

Extended collection of information and parameters for FENGYUN 1C DEB.

Object identification

Identified? True

Debris? True

Object name: FENGYUN 1C DEB

International designator: 1999-025CPG

Object number (NORAD): 31979

Object ID (CCSDS): 31979

Country: PEOPLES REPUBLIC OF CHINA (PRC)

Current information (Y/N): Y

RCS size: SMALL

Orbital parameters

Period: 105.255 minutes

Inclination: 99.3778 deg

SMA: 7384.503 km

Apoapsis: 1201.944 km

Periapsis: 810.792 km

RAAN: 280.4653 deg

Eccentricy: 0.0264846

Argument of periapsis: 345.465 deg

Mean anomaly: 13.8983 deg

Mean motion: 13.68109497 rev/day

Mean motion (dot): 0.00001292 rev/day2

B* drag term: 0.0012295 1/REarth

Two-line elements (TLE)

Creation date: July 2, 2025, 5:47 p.m.

Reference frame: TEME

Reference center: EARTH

Epoch: July 2, 2025, 12:15 p.m. UTC

TLE line 0: 0 FENGYUN 1C DEB

TLE line 1: 1 31979U 99025CPG 25183.51073889 .00001292 00000-0 12295-2 0 9999

TLE line 2: 2 31979 99.3778 280.4653 0264846 345.4650 13.8983 13.68109497556791

Live tracking on map

Real-time ground track for satellite FENGYUN 1C DEB.

In-orbit conjunctions

A list of the most updated potential collisions computed for object FENGYUN 1C DEB.

Target Orbit TCA Probability of collision Miss distance Type
CZ-6A DEB LEO 2025-02-12 00:52:17 0.001741366 175.0 (m) DEBRIS
SL-14 DEB LEO 2024-11-10 02:41:52 0.0003846872 836.0 (m) DEBRIS

Associated space launch

Chinese polar orbiting meteorological satellite

FENGYUN 1C DEB was lifted into orbit during the mission ‘Long March 4B | Feng Yun 1C’, on board a Long March 4B space rocket.

The launch took place on May 10, 1999, 1:33 a.m. from Launch Complex 7.

For more information about the launch, click the button.

Launch to space Long March 4B | Feng Yun 1C
Long March 4B | Feng Yun 1C

Agency: N/A

Status: Launch Successful

Launch date: May 10, 1999, 1:33 a.m. UTC

Rocket: Long March 4B

Launch pad: Launch Complex 7

Location: Taiyuan Satellite Launch Center, People's Republic of China

...

Latest news about this satellite

There are no fresh news available about this satellite. Check back as we update our databases every day.


Newsletter sign-up

Weekly statistics, charts and insights to help you stay on top of the space industry.